sat.trackr.live / text

‹ back to catalog

KNACKSAT-2

NORAD 67683 · 1998-067XZ

PAYLOAD ACTIVE UNKNOWN

§ Identity

Operator
Country
THAI
Launch date
1998-11-20
Launch site
TYMSC
Launch vehicle
Mass (kg)
RCS (m²)

Purposes: comms, station, tech_demo

External: N2YO · Heavens-Above · Gunter

§ Orbital elements

Epoch: 2026-09-19T06:06:44.949024Z

Period
91.76 min
Inclination
51.6237°
Eccentricity
0.0008279
Mean motion
15.69367004 rev/d
Perigee alt
355.1 km
Apogee alt
366.3 km
Semi-major
6,738.8 km
B*
5.1271e-4
RAAN
178.1756°
Arg perigee
181.0467°
Mean anomaly
179.0514°
Rev number
3,500

§ Raw data

KNACKSAT-21 67683U 98067XZ  26262.25468691  .00061304  00000+0  51271-3 0  99912 67683  51.6237 178.1756 0008279 181.0467 179.0514 15.69367004 35000

JSON: /api/v1/satellites/67683 · /tle

For live sub-satellite position, see the globe view (requires WebGL).

§ Visibility from observer

Set your observer location to see the next 7 days of passes ≥ 10°. The values pass through the URL so the page stays shareable.

No JS? Fill the form by hand. The geolocation button needs JavaScript.

§ Radio — SatNOGS DB

ModeDescriptionDownlinkUplink
FSK Mode U - FSK9k6 - AX.25 G3RUH -TLM 400.630 MHz
FSK Mode V/V - FSK9k6 - Digipeater - AX.25 G3RUH 145.825 MHz 145.825 MHz

2 transmitters · refreshed weekly from db.satnogs.org